FW2362 Weather Reports


time (UTC)temp
C
wind
direction
speed
KPH
gust
KPH
rain 1hr
cm
rain 24hr
cm
rain mn
cm
humidity
%
barometer
mb
20260507213152 21 292 25.7 51.5 0.00 0.00 0.00 30 1016.7
20260507210035 21 295 27.4 45.1 0.00 0.00 0.00 30 1016.8
20260507204534 21 293 27.4 48.3 0.00 0.00 0.00 29 1016.9
20260507203035 21 293 27.4 56.3 0.00 0.00 0.00 29 1016.9
20260507201532 21 292 25.7 43.5 0.00 0.00 0.00 31 1017.4
20260507200110 20 291 22.5 40.2 0.00 0.00 0.00 33 1017.6
20260507194608 20 294 25.7 48.3 0.00 0.00 0.00 34 1017.6
20260507193037 20 296 25.7 45.1 0.00 0.00 0.00 35 1017.8
20260507191535 19 296 22.5 40.2 0.00 0.00 0.00 37 1018.3
20260507190035 19 294 19.3 40.2 0.00 0.00 0.00 39 1018.7
20260507184620 18 296 20.9 40.2 0.00 0.00 0.00 41 1018.8
20260507184610 18 303 19.3 38.6 0.00 0.00 0.00 42 1019.0
20260507181535 17 298 24.1 48.3 0.00 0.00 0.00 45 1018.8
20260507180033 17 296 20.9 43.5 0.00 0.00 0.00 47 1018.9
20260507174534 17 285 20.9 45.1 0.00 0.00 0.00 48 1019.2
20260507173029 16 285 17.7 38.6 0.00 0.00 0.00 50 1019.4
20260507170109 16 302 20.9 37.0 0.00 0.00 0.00 53 1019.7
20260507164534 15 300 20.9 40.2 0.00 0.00 0.00 55 1019.8
20260507163032 15 297 17.7 33.8 0.00 0.00 0.00 57 1020.0
20260507161533 15 291 17.7 38.6 0.00 0.00 0.00 59 1019.8
20260507160036 15 287 17.7 40.2 0.00 0.00 0.00 60 1020.0
20260507154534 15 287 22.5 43.5 0.00 0.00 0.00 61 1019.9
20260507150046 13 290 24.1 43.5 0.00 0.00 0.00 66 1019.9
20260507144534 13 295 22.5 38.6 0.00 0.00 0.00 68 1019.9
20260507143031 13 300 22.5 41.8 0.00 0.00 0.00 69 1019.9
20260507141535 13 301 19.3 38.6 0.00 0.00 0.00 70 1020.1
20260507134535 12 294 17.7 37.0 0.00 0.00 0.00 72 1020.1
20260507133029 12 295 16.1 37.0 0.00 0.00 0.00 73 1020.1
20260507131536 12 293 16.1 30.6 0.00 0.00 0.00 72 1020.1
20260507124535 12 301 14.5 27.4 0.00 0.00 0.00 71 1019.9
20260507123111 13 299 12.9 29.0 0.00 0.00 0.00 70 1019.9
20260507121532 13 292 11.3 25.7 0.00 0.00 0.00 70 1019.9
20260507120034 13 297 14.5 29.0 0.00 0.00 0.00 70 1019.7
20260507114534 13 295 16.1 33.8 0.00 0.00 0.00 70 1019.5
20260507113033 13 295 17.7 35.4 0.00 0.00 0.00 70 1019.3
20260507111652 13 296 14.5 33.8 0.00 0.00 0.00 70 1019.2
20260507104610 13 295 19.3 41.8 0.00 0.00 0.00 70 1018.7
20260507103035 13 289 17.7 38.6 0.00 0.00 0.00 71 1018.7
20260507101536 14 282 19.3 38.6 0.00 0.00 0.00 70 1018.6
20260507094608 15 283 17.7 33.8 0.00 0.00 0.00 69 1018.7
20260507093110 15 282 17.7 33.8 0.00 0.00 0.00 70 1018.8
20260507091532 15 288 16.1 30.6 0.00 0.00 0.00 70 1019.0
20260507090035 15 294 16.1 33.8 0.00 0.00 0.00 71 1019.1
20260507084535 15 296 12.9 30.6 0.00 0.00 0.00 71 1019.0
20260507083034 15 285 12.9 27.4 0.00 0.00 0.00 71 1019.0
20260507081536 15 280 8.0 29.0 0.00 0.00 0.00 71 1019.0
20260507080034 15 260 11.3 32.2 0.00 0.00 0.00 71 1019.0
20260507074535 15 254 9.7 22.5 0.00 0.00 0.00 71 1019.0
20260507073033 15 244 8.0 22.5 0.00 0.00 0.00 70 1018.8
20260507071536 15 258 12.9 35.4 0.00 0.00 0.00 70 1018.6
20260507070030 16 269 14.5 29.0 0.00 0.00 0.00 69 1018.5
20260507064538 16 269 12.9 33.8 0.00 0.00 0.00 68 1018.5
20260507063032 16 267 12.9 32.2 0.00 0.00 0.00 68 1018.7
20260507061534 16 262 12.9 32.2 0.00 0.00 0.00 67 1018.8
20260507060144 16 261 12.9 25.7 0.00 0.00 0.00 67 1018.8
20260507054533 17 271 14.5 35.4 0.00 0.00 0.00 66 1018.8
20260507053036 17 275 17.7 40.2 0.00 0.00 0.00 66 1018.8
20260507051535 17 266 14.5 35.4 0.00 0.00 0.00 67 1019.0
20260507044534 17 281 16.1 35.4 0.00 0.00 0.00 65 1019.1
20260507043110 17 290 17.7 35.4 0.00 0.00 0.00 63 1019.2
20260507041533 17 296 16.1 33.8 0.00 0.00 0.00 61 1019.1
20260507040152 18 294 14.5 32.2 0.00 0.00 0.00 59 1018.8
20260507033035 18 299 14.5 30.6 0.00 0.00 0.00 54 1018.6
20260507030142 19 294 11.3 27.4 0.00 0.00 0.00 52 1018.5
20260507024536 20 296 14.5 33.8 0.00 0.00 0.00 51 1018.4
20260507023036 20 294 16.1 35.4 0.00 0.00 0.00 51 1018.2
20260507021534 20 293 14.5 27.4 0.00 0.00 0.00 52 1018.2
20260507020037 20 293 17.7 38.6 0.00 0.00 0.00 51 1018.1
20260507014607 20 293 19.3 38.6 0.00 0.00 0.00 51 1018.0
20260507011536 20 291 17.7 37.0 0.00 0.00 0.00 52 1017.9
20260507010036 20 279 16.1 35.4 0.00 0.00 0.00 52 1018.1
20260507004536 20 284 17.7 37.0 0.00 0.00 0.00 51 1018.0
20260507003038 20 289 20.9 43.5 0.00 0.00 0.00 51 1017.7
20260507001537 20 289 20.9 40.2 0.00 0.00 0.00 51 1017.4
20260506233033 21 288 22.5 41.8 0.00 0.00 0.00 49 1017.1
20260506231532 21 286 24.1 45.1 0.00 0.00 0.00 49 1016.8
20260506230039 21 288 25.7 46.7 0.00 0.00 0.00 49 1016.5
20260506224535 21 289 19.3 40.2 0.00 0.00 0.00 50 1017.0
20260506223107 21 279 17.7 41.8 0.00 0.00 0.00 49 1017.3
20260506221536 21 273 16.1 35.4 0.00 0.00 0.00 49 1017.7
20260506220040 21 272 14.5 37.0 0.00 0.00 0.00 48 1017.9
20260506214534 22 293 24.1 45.1 0.00 0.00 0.00 46 1017.8